When you browse on this site, cookies collect data to enhance your experience and personalize the content and advertising you see.
Visit our Privacy Policy to learn more. By continuing to use the site, you agree to this use of cookies and data.
  • In Romania
  • List of Countries
  • For 7 days
  • Water Temperature
  • Weather Map
  • Weather Widgets
  • user-avatar
    Login

    Hourly Weather Mazatenango

    Today, 26 August, Monday

    Time Temperature Precipitation Wind Pressure Humidity
    00:00 +24°C° 0 mm 2 mps 726 mmHg 89%
    01:00 +24°C° 0 mm 2 mps 726 mmHg 87%
    02:00 +24°C° 0 mm 2 mps 725 mmHg 85%
    03:00 +24°C° 0 mm 2 mps 725 mmHg 82%
    04:00 +24°C° 0 mm 2 mps 725 mmHg 80%
    05:00 +24°C° 0 mm 1 mps 725 mmHg 77%
    06:00 +24°C° 0 mm 1 mps 725 mmHg 75%
    07:00 +26°C° 0 mm 1 mps 725 mmHg 70%
    08:00 +29°C° 0 mm 1 mps 726 mmHg 65%
    09:00 +31°C° 0 mm 1 mps 726 mmHg 60%
    10:00 +32°C° 0.2 mm 1 mps 726 mmHg 61%
    11:00 +32°C° 0.2 mm 2 mps 726 mmHg 61%
    12:00 +34°C° 0.2 mm 2 mps 726 mmHg 62%
    13:00 +32°C° 1.5 mm 2 mps 725 mmHg 68%
    14:00 +31°C° 1.5 mm 2 mps 725 mmHg 75%
    15:00 +30°C° 1.5 mm 1 mps 724 mmHg 81%
    16:00 +29°C° 0.9 mm 1 mps 724 mmHg 84%
    17:00 +28°C° 0.9 mm 1 mps 724 mmHg 87%
    18:00 +27°C° 0.9 mm 1 mps 724 mmHg 90%
    19:00 +27°C° 1 mm 1 mps 725 mmHg 90%
    20:00 +26°C° 1 mm 1 mps 725 mmHg 90%
    21:00 +25°C° 1 mm 2 mps 726 mmHg 89%
    22:00 +25°C° 0.1 mm 2 mps 726 mmHg 88%
    23:00 +24°C° 0.1 mm 2 mps 726 mmHg 86%

    Tomorrow, 27 August, Tuesday

    Time Temperature Precipitation Wind Pressure Humidity
    00:00 +24°C° 0.1 mm 2 mps 726 mmHg 84%
    01:00 +24°C° 0 mm 2 mps 725 mmHg 81%
    02:00 +24°C° 0 mm 2 mps 725 mmHg 78%
    03:00 +24°C° 0 mm 2 mps 725 mmHg 74%
    04:00 +24°C° 0 mm 2 mps 725 mmHg 73%
    05:00 +24°C° 0 mm 2 mps 725 mmHg 73%
    06:00 +24°C° 0 mm 1 mps 725 mmHg 72%
    07:00 +26°C° 0 mm 1 mps 725 mmHg 67%
    08:00 +29°C° 0 mm 1 mps 726 mmHg 62%
    09:00 +31°C° 0 mm 1 mps 726 mmHg 57%
    10:00 +32°C° 0 mm 1 mps 726 mmHg 55%
    11:00 +33°C° 0 mm 1 mps 726 mmHg 54%
    12:00 +35°C° 0 mm 2 mps 726 mmHg 52%
    13:00 +34°C° 0.4 mm 2 mps 725 mmHg 58%
    14:00 +32°C° 0.4 mm 2 mps 725 mmHg 64%
    15:00 +32°C° 0.4 mm 2 mps 724 mmHg 70%
    16:00 +30°C° 1 mm 1 mps 724 mmHg 77%
    17:00 +29°C° 1 mm 1 mps 724 mmHg 84%
    18:00 +28°C° 1 mm 1 mps 724 mmHg 90%
    19:00 +27°C° 0.4 mm 1 mps 725 mmHg 91%
    20:00 +26°C° 0.4 mm 1 mps 726 mmHg 91%
    21:00 +25°C° 0.4 mm 1 mps 726 mmHg 91%
    22:00 +25°C° 0.1 mm 2 mps 726 mmHg 91%
    23:00 +24°C° 0.1 mm 2 mps 726 mmHg 90%

    Day after tomorrow, 28 August, Wednesday

    Time Temperature Precipitation Wind Pressure Humidity
    00:00 +24°C° 0.1 mm 2 mps 726 mmHg 89%
    01:00 +24°C° 0 mm 2 mps 726 mmHg 87%
    02:00 +24°C° 0 mm 2 mps 726 mmHg 84%
    03:00 +24°C° 0 mm 2 mps 725 mmHg 82%
    04:00 +24°C° 0 mm 2 mps 726 mmHg 80%
    05:00 +24°C° 0 mm 2 mps 726 mmHg 77%
    06:00 +24°C° 0 mm 1 mps 726 mmHg 75%
    07:00 +26°C° 0 mm 1 mps 726 mmHg 69%
    08:00 +29°C° 0 mm 1 mps 727 mmHg 64%
    09:00 +31°C° 0 mm 1 mps 727 mmHg 59%
    10:00 +32°C° 0.1 mm 1 mps 727 mmHg 57%
    11:00 +33°C° 0.1 mm 1 mps 727 mmHg 56%
    12:00 +35°C° 0.1 mm 2 mps 727 mmHg 55%
    13:00 +32°C° 1.3 mm 2 mps 726 mmHg 63%
    14:00 +31°C° 1.3 mm 1 mps 725 mmHg 71%
    15:00 +30°C° 1.3 mm 1 mps 725 mmHg 79%
    16:00 +29°C° 0.6 mm 1 mps 725 mmHg 82%
    17:00 +28°C° 0.6 mm 1 mps 725 mmHg 86%
    18:00 +27°C° 0.6 mm 1 mps 725 mmHg 89%
    19:00 +26°C° 0.3 mm 1 mps 726 mmHg 89%
    20:00 +25°C° 0.3 mm 1 mps 726 mmHg 89%
    21:00 +24°C° 0.3 mm 2 mps 727 mmHg 89%
    22:00 +24°C° 0 mm 2 mps 727 mmHg 86%
    23:00 +24°C° 0 mm 2 mps 727 mmHg 82%

    29 August, Thursday

    Time Temperature Precipitation Wind Pressure Humidity
    00:00 +23°C° 0 mm 2 mps 727 mmHg 79%
    01:00 +23°C° 0 mm 2 mps 726 mmHg 72%
    02:00 +23°C° 0 mm 2 mps 726 mmHg 65%
    03:00 +23°C° 0 mm 2 mps 726 mmHg 58%
    04:00 +23°C° 0 mm 2 mps 726 mmHg 56%
    05:00 +23°C° 0 mm 2 mps 726 mmHg 55%
    06:00 +23°C° 0 mm 2 mps 726 mmHg 53%
    07:00 +25°C° 0 mm 2 mps 726 mmHg 52%
    08:00 +28°C° 0 mm 1 mps 727 mmHg 51%
    09:00 +28°C° 0 mm 0 mps 727 mmHg 50%
    10:00 +31°C° 0 mm 1 mps 727 mmHg 50%
    11:00 +32°C° 0 mm 1 mps 727 mmHg 51%
    12:00 +34°C° 0 mm 2 mps 727 mmHg 51%
    13:00 +32°C° 0.2 mm 2 mps 726 mmHg 54%
    14:00 +32°C° 0.2 mm 2 mps 725 mmHg 58%
    15:00 +32°C° 0.2 mm 2 mps 725 mmHg 61%
    16:00 +30°C° 0.2 mm 2 mps 725 mmHg 69%
    17:00 +29°C° 0.2 mm 1 mps 725 mmHg 78%
    18:00 +27°C° 0.2 mm 1 mps 725 mmHg 86%
    19:00 +26°C° 0.5 mm 1 mps 726 mmHg 86%
    20:00 +25°C° 0.5 mm 1 mps 727 mmHg 86%
    21:00 +24°C° 0.5 mm 2 mps 727 mmHg 87%
    22:00 +24°C° 0 mm 2 mps 727 mmHg 84%
    23:00 +24°C° 0 mm 2 mps 727 mmHg 81%

    30 August, Friday

    Time Temperature Precipitation Wind Pressure Humidity
    00:00 +24°C° 0 mm 2 mps 727 mmHg 78%
    01:00 +24°C° 0 mm 2 mps 727 mmHg 76%
    02:00 +24°C° 0 mm 2 mps 726 mmHg 74%
    03:00 +24°C° 0 mm 2 mps 726 mmHg 72%
    04:00 +24°C° 0 mm 2 mps 726 mmHg 71%
    05:00 +24°C° 0 mm 2 mps 726 mmHg 69%
    06:00 +24°C° 0 mm 2 mps 726 mmHg 68%
    07:00 +26°C° 0 mm 1 mps 726 mmHg 65%
    08:00 +28°C° 0 mm 1 mps 727 mmHg 61%
    09:00 +28°C° 0 mm 0 mps 727 mmHg 58%
    10:00 +31°C° 0 mm 1 mps 727 mmHg 57%
    11:00 +32°C° 0 mm 2 mps 727 mmHg 56%
    12:00 +34°C° 0 mm 2 mps 726 mmHg 54%
    13:00 +32°C° 1 mm 2 mps 726 mmHg 63%
    14:00 +31°C° 1 mm 2 mps 725 mmHg 72%
    15:00 +30°C° 1 mm 2 mps 724 mmHg 81%
    16:00 +29°C° 1.6 mm 1 mps 724 mmHg 85%
    17:00 +28°C° 1.6 mm 1 mps 725 mmHg 89%
    18:00 +27°C° 1.6 mm 1 mps 725 mmHg 92%
    19:00 +26°C° 1 mm 1 mps 726 mmHg 93%
    20:00 +25°C° 1 mm 1 mps 726 mmHg 93%
    21:00 +25°C° 1 mm 1 mps 727 mmHg 93%
    22:00 +24°C° 0.1 mm 1 mps 727 mmHg 92%
    23:00 +24°C° 0.1 mm 2 mps 727 mmHg 92%

    31 August, Saturday

    Time Temperature Precipitation Wind Pressure Humidity
    00:00 +24°C° 0.1 mm 2 mps 726 mmHg 91%
    01:00 +23°C° 0 mm 2 mps 726 mmHg 89%
    02:00 +23°C° 0 mm 2 mps 726 mmHg 87%
    03:00 +23°C° 0 mm 2 mps 725 mmHg 85%
    04:00 +23°C° 0 mm 2 mps 725 mmHg 83%
    05:00 +23°C° 0 mm 2 mps 726 mmHg 80%
    06:00 +23°C° 0 mm 2 mps 726 mmHg 78%
    07:00 +25°C° 0 mm 1 mps 726 mmHg 73%
    08:00 +28°C° 0 mm 1 mps 727 mmHg 67%
    09:00 +30°C° 0 mm 1 mps 727 mmHg 62%
    10:00 +31°C° 0 mm 1 mps 727 mmHg 61%
    11:00 +32°C° 0 mm 1 mps 726 mmHg 60%
    12:00 +34°C° 0 mm 2 mps 726 mmHg 60%
    13:00 +32°C° 1.4 mm 2 mps 725 mmHg 67%
    14:00 +30°C° 1.4 mm 2 mps 725 mmHg 75%
    15:00 +29°C° 1.4 mm 2 mps 724 mmHg 83%
    16:00 +29°C° 0.7 mm 1 mps 724 mmHg 86%
    17:00 +28°C° 0.7 mm 1 mps 724 mmHg 89%
    18:00 +27°C° 0.7 mm 1 mps 725 mmHg 93%
    19:00 +26°C° 0.5 mm 1 mps 725 mmHg 92%
    20:00 +26°C° 0.5 mm 1 mps 725 mmHg 92%
    21:00 +25°C° 0.5 mm 1 mps 726 mmHg 92%
    22:00 +24°C° 0.6 mm 1 mps 726 mmHg 92%
    23:00 +24°C° 0.6 mm 1 mps 726 mmHg 92%
    Show more